#timestamp,LO_Frequency,Hit,StdDev 
1558245615.1,286046998.6,N
1558245616.0,286046998.6,N
1558245635.8,286047000.4,N
1558245655.7,286047002.8,N
1558245675.5,286047002.5,N
1558245695.3,286046999.8,N
1558245715.2,286047002.1,N
1558245735.0,286047002.4,N
1558245735.9,286047002.4,N
1558245755.8,286047003.1,N
1558245775.6,286047003.9,N
1558245795.4,286047002.2,N
1558245815.3,286047002.7,N
1558245835.1,286047001.3,N
1558245855.8,286047003.9,N
1558245875.7,286047001.8,N
1558245895.5,286047001.6,N
1558245915.4,286047004.4,N
1558245935.2,286047004.1,N
1558245955.0,286047004.5,N
1558245955.9,286047004.5,N
1558245975.8,286047004.7,N
1558245995.6,286047007.6,Y
1558246015.4,286047001.3,P
1558246035.3,286047003.2,P
1558246055.1,286047001.3,N
1558246075.9,286047002.4,N
1558246095.7,286047000.3,N
1558246115.5,286046998.6,N
1558246135.4,286046998.7,N
1558246155.2,286046997.3,N
1558246175.0,286046996.8,N
1558246175.9,286046996.8,N
1558246195.8,286046997.4,N
1558246215.6,286046996.9,N
1558246235.5,286046996.9,N
1558246255.3,286046999.1,N
1558246275.1,286046996.7,N
1558246295.9,286046996.8,N
1558246315.7,286046998.0,N
1558246335.5,286046995.3,N
1558246355.4,286046994.0,N
1558246375.2,286046994.4,N
1558246395.1,286046992.2,Y
1558246396.0,286046992.2,P
1558246415.8,286046993.8,N
1558246435.6,286046993.7,N
1558246455.5,286046996.1,N
1558246475.3,286046996.3,N
1558246495.1,286046996.2,N
1558246515.9,286046995.1,N
1558246535.7,286046998.0,N
1558246555.6,286046996.2,N
1558246575.4,286046995.7,N
1558246595.2,286046995.6,N
1558246615.1,286046995.4,N
1558246616.0,286046995.4,N
1558246635.8,286046997.0,N
1558246655.6,286046996.8,N
1558246675.5,286046997.0,N
1558246695.3,286046996.7,N
1558246715.2,286046998.1,N
1558246735.9,286047000.8,N
1558246755.7,286047000.5,N
1558246775.6,286047002.5,N
1558246795.4,286047002.7,N
1558246815.2,286047002.8,N
1558246835.1,286047002.8,N
1558246836.0,286047002.8,N
1558246855.8,286046998.5,N
1558246875.7,286047001.2,N
1558246895.5,286047001.2,N
1558246915.3,286046998.9,N
1558246935.2,286046998.8,N
1558246955.0,286046996.9,N
1558246955.9,286046996.9,N
1558246975.7,286046995.3,N
1558246995.6,286046995.4,N
1558247015.4,286046994.9,N
1558247035.3,286046996.7,N
1558247055.1,286046995.3,N
1558247056.0,286046995.3,N
1558247075.8,286046995.6,N
1558247095.7,286046997.9,N
1558247115.5,286046999.5,N
1558247135.3,286046999.2,N
1558247155.2,286046996.6,N
1558247175.0,286046998.8,N
1558247175.9,286046998.8,N
1558247195.8,286046998.9,N
1558247215.6,286046999.0,N
1558247235.4,286046998.9,N
1558247255.3,286046998.4,N
1558247275.1,286047001.2,N
1558247295.9,286046998.6,N
1558247315.7,286046998.3,N
1558247335.5,286046999.0,N
1558247355.4,286046997.0,N
1558247375.2,286046999.4,N
1558247395.0,286046995.0,N
1558247395.9,286046995.0,N
1558247415.8,286046995.7,N
1558247435.6,286046997.4,N
1558247455.5,286046995.2,N
1558247475.3,286046995.6,N
1558247495.1,286046995.8,N
1558247515.9,286046995.1,N
1558247535.7,286046996.1,N
1558247555.6,286046993.5,Y
1558247575.4,286046999.2,P
1558247595.2,286046997.0,P
1558247615.1,286046998.7,N
1558247616.0,286046998.7,N
1558247635.8,286046998.7,N
1558247655.6,286046998.3,N
1558247675.5,286047000.9,N
1558247695.3,286047000.2,N
1558247715.2,286046999.7,N
1558247735.9,286047001.0,N
1558247755.7,286047002.7,N
1558247775.6,286047000.0,N
1558247795.4,286047000.7,N
1558247815.2,286046999.1,N
1558247835.1,286046998.4,N
1558247836.0,286046998.4,N
1558247855.8,286046999.0,N
1558247875.7,286046999.4,N
1558247895.5,286046996.9,N
1558247915.3,286046996.8,N
1558247935.2,286046999.6,N
1558247955.0,286046997.5,N
1558247955.9,286046997.5,N
1558247975.7,286046997.8,N
1558248025.6,286046994.2,E
1558248035.5,286046997.8,N
1558248055.4,286046999.9,P
1558248075.2,286047000.0,N
1558248095.0,286047001.1,N
1558248095.9,286047001.1,N
1558248115.8,286047000.5,N
1558248135.6,286047000.9,N
1558248155.5,286047000.0,N
1558248175.3,286047002.6,N
1558248195.1,286046999.9,N
1558248215.9,286047000.9,N
1558248235.7,286046999.7,N
1558248255.5,286047000.0,N
1558248275.4,286047000.5,N
1558248295.2,286047001.0,N
1558248315.1,286046998.2,N
1558248316.0,286046998.2,N
1558248335.8,286046999.9,N
1558248355.6,286047000.6,N
1558248375.5,286047000.5,N
1558248395.3,286047000.1,N
1558248415.2,286047000.7,N
1558248435.9,286047000.5,N
1558248455.7,286047001.0,N
1558248475.6,286047001.0,N
1558248495.4,286047001.0,N
1558248515.2,286047001.2,N
1558248535.1,286047000.8,N
1558248536.0,286047000.8,N
1558248555.8,286047000.0,N
1558248575.7,286047000.3,N
1558248595.5,286047000.3,N
1558248615.3,286047001.0,N
1558248635.2,286047000.3,N
1558248655.0,286047000.9,N
1558248655.9,286047000.9,N
1558248675.7,286047000.1,N
1558248695.6,286047004.0,Y
1558248715.4,286047003.1,P
1558248735.3,286047003.1,N
1558248755.1,286047003.8,N
1558248756.0,286047003.8,N
1558248775.8,286047001.3,N
1558248795.7,286047004.0,Y
1558248815.5,286047000.7,P
1558248835.4,286046998.1,N
1558248855.2,286047000.5,N
1558248875.0,286047002.0,N
1558248875.9,286047002.0,N
1558248895.8,286047006.0,Y
1558248915.6,286047003.1,P
1558248935.4,286047002.9,N
1558248955.3,286047007.1,P
1558248975.1,286047008.5,Y
1558248995.9,286047003.5,P
1558249015.7,286047004.9,P
1558249035.5,286047005.9,P
1558249055.4,286047004.5,Y
1558249075.2,286047000.7,P
1558249095.0,286046996.8,N
1558249096.0,286046996.8,N
1558249115.8,286046999.2,N
1558249135.6,286046998.4,N
1558249155.5,286046996.8,N
1558249175.3,286046995.2,N
1558249195.1,286046995.1,N
